Location: Antioch Baptist Church
(32.6696°N, 85.7327°W)
Time: 21:11:00
(UTC+00:00)

Gblst 52 Del rocket - Pass Details

Date: 14 July 2020
Orbit: 805 x 1366 km, 51.5° (Epoch: 12 August)

Event Time Altitude Azimuth Distance (km) Brightness Sun altitude
Rises 02:59:30 0° 312° (NW) 3,365 8.8 -22.3°
Reaches altitude 10° 03:01:52 10° 312° (NW) 2,468 7.7 -22.6°
Maximum altitude 03:07:38 80° 226° (SW) 925 4.3 -23.4°
Enters shadow 03:09:13 52° 149° (SSE) 1,143 4.4 -23.7°
